| time (UTC) | temp F | wind direction | speed knots | gust knots | rain 1hr in | rain 24hr in | rain mn in | humidity % | barometer mb |
| 20260507141538 | 67 | 161 | 6.1 | 10.4 | 0.00 | 0.00 | 0.00 | 56 | 1011.0 |
| 20260507140045 | 67 | 133 | 6.1 | 12.2 | 0.00 | 0.00 | 0.00 | 55 | 1011.0 |
| 20260507134536 | 67 | 140 | 7.0 | 14.8 | 0.00 | 0.00 | 0.00 | 54 | 1011.0 |
| 20260507133034 | 68 | 149 | 7.0 | 13.0 | 0.00 | 0.00 | 0.00 | 52 | 1011.2 |
| 20260507131603 | 69 | 143 | 8.7 | 15.6 | 0.00 | 0.00 | 0.00 | 49 | 1011.1 |
| 20260507130034 | 71 | 132 | 7.0 | 14.8 | 0.00 | 0.00 | 0.00 | 46 | 1011.4 |
| 20260507124549 | 71 | 129 | 5.2 | 10.4 | 0.00 | 0.00 | 0.00 | 46 | 1011.3 |
| 20260507123043 | 70 | 101 | 5.2 | 12.2 | 0.00 | 0.00 | 0.00 | 46 | 1011.5 |
| 20260507121541 | 70 | 48 | 5.2 | 14.8 | 0.00 | 0.00 | 0.00 | 46 | 1011.7 |
| 20260507120039 | 70 | 125 | 6.1 | 13.0 | 0.00 | 0.00 | 0.00 | 46 | 1011.8 |
| 20260507114533 | 69 | 119 | 5.2 | 10.4 | 0.00 | 0.00 | 0.00 | 48 | 1011.7 |
| 20260507113102 | 69 | 57 | 5.2 | 12.2 | 0.00 | 0.00 | 0.00 | 48 | 1011.8 |
| 20260507111536 | 69 | 68 | 6.1 | 11.3 | 0.00 | 0.00 | 0.00 | 49 | 1012.0 |
| 20260507110038 | 69 | 65 | 5.2 | 12.2 | 0.00 | 0.00 | 0.00 | 49 | 1012.0 |
| 20260507104539 | 70 | 90 | 6.1 | 11.3 | 0.00 | 0.00 | 0.00 | 49 | 1012.1 |
| 20260507103038 | 70 | 74 | 4.3 | 13.0 | 0.00 | 0.00 | 0.00 | 49 | 1012.3 |
| 20260507101538 | 70 | 41 | 6.1 | 13.0 | 0.00 | 0.00 | 0.00 | 49 | 1012.2 |
| 20260507100046 | 69 | 98 | 5.2 | 13.0 | 0.00 | 0.00 | 0.00 | 49 | 1012.3 |
| 20260507094538 | 70 | 98 | 6.1 | 14.8 | 0.00 | 0.00 | 0.00 | 48 | 1012.3 |
| 20260507093039 | 70 | 108 | 5.2 | 13.0 | 0.00 | 0.00 | 0.00 | 48 | 1012.6 |
| 20260507091541 | 69 | 93 | 6.1 | 11.3 | 0.00 | 0.00 | 0.00 | 49 | 1012.4 |
| 20260507090039 | 68 | 105 | 6.1 | 13.0 | 0.00 | 0.00 | 0.00 | 50 | 1012.5 |
| 20260507084549 | 68 | 65 | 6.1 | 12.2 | 0.00 | 0.00 | 0.00 | 51 | 1012.3 |
| 20260507083036 | 68 | 76 | 4.3 | 9.6 | 0.00 | 0.00 | 0.00 | 50 | 1012.6 |
| 20260507081537 | 67 | 108 | 2.6 | 10.4 | 0.00 | 0.00 | 0.00 | 51 | 1012.5 |
| 20260507080038 | 67 | 67 | 2.6 | 10.4 | 0.00 | 0.00 | 0.00 | 51 | 1012.5 |
| 20260507074537 | 67 | 88 | 4.3 | 8.7 | 0.00 | 0.00 | 0.00 | 52 | 1012.5 |
| 20260507073036 | 66 | 77 | 6.1 | 10.4 | 0.00 | 0.00 | 0.00 | 52 | 1012.4 |
| 20260507071541 | 65 | 98 | 0.0 | 3.5 | 0.00 | 0.00 | 0.00 | 54 | 1012.1 |
| 20260507070034 | 64 | 0 | 0.0 | 4.3 | 0.00 | 0.00 | 0.00 | 56 | 1012.1 |
| 20260507064543 | 63 | 0 | 0.0 | 3.5 | 0.00 | 0.00 | 0.00 | 58 | 1012.0 |
| 20260507063031 | 62 | 167 | 1.7 | 3.5 | 0.00 | 0.00 | 0.00 | 59 | 1012.0 |
| 20260507061537 | 61 | 0 | 0.0 | 2.6 | 0.00 | 0.00 | 0.00 | 60 | 1012.0 |
| 20260507060039 | 61 | 0 | 0.0 | 1.7 | 0.00 | 0.00 | 0.00 | 60 | 1011.9 |
| 20260507054539 | 60 | 252 | 0.9 | 2.6 | 0.00 | 0.00 | 0.00 | 61 | 1011.9 |
| 20260507053032 | 60 | 0 | 0.0 | 2.6 | 0.00 | 0.00 | 0.00 | 61 | 1011.9 |
| 20260507051532 | 60 | 259 | 0.9 | 3.5 | 0.00 | 0.00 | 0.00 | 61 | 1011.8 |
| 20260507050100 | 60 | 276 | 0.0 | 2.6 | 0.00 | 0.00 | 0.00 | 61 | 1011.7 |
| 20260507044546 | 60 | 274 | 1.7 | 5.2 | 0.00 | 0.00 | 0.00 | 61 | 1011.8 |
| 20260507043037 | 60 | 305 | 2.6 | 5.2 | 0.00 | 0.00 | 0.00 | 61 | 1011.6 |
| 20260507041539 | 60 | 0 | 2.6 | 6.1 | 0.00 | 0.00 | 0.00 | 60 | 1011.6 |
| 20260507040036 | 60 | 0 | 0.0 | 0.0 | 0.00 | 0.00 | 0.00 | 59 | 1011.6 |
| 20260507034540 | 61 | 0 | 0.0 | 0.0 | 0.00 | 0.00 | 0.00 | 58 | 1011.6 |
| 20260507033041 | 62 | 0 | 0.0 | 0.9 | 0.00 | 0.00 | 0.00 | 57 | 1011.5 |
| 20260507031537 | 62 | 110 | 0.0 | 2.6 | 0.00 | 0.00 | 0.00 | 57 | 1011.4 |
| 20260507030038 | 62 | 0 | 0.9 | 2.6 | 0.00 | 0.00 | 0.00 | 57 | 1011.5 |
| 20260507024543 | 62 | 109 | 0.9 | 3.5 | 0.00 | 0.00 | 0.00 | 58 | 1011.5 |
| 20260507023038 | 62 | 91 | 0.9 | 5.2 | 0.00 | 0.00 | 0.00 | 58 | 1011.6 |
| 20260507021547 | 62 | 0 | 0.0 | 0.0 | 0.00 | 0.00 | 0.00 | 59 | 1011.6 |
| 20260507020034 | 62 | 0 | 0.0 | 0.0 | 0.00 | 0.00 | 0.00 | 59 | 1011.8 |
| 20260507014537 | 62 | 0 | 0.0 | 0.0 | 0.00 | 0.00 | 0.00 | 59 | 1011.9 |
| 20260507013038 | 62 | 0 | 0.0 | 0.0 | 0.00 | 0.00 | 0.00 | 59 | 1012.1 |
| 20260507011539 | 62 | 0 | 0.0 | 0.0 | 0.00 | 0.00 | 0.00 | 59 | 1012.0 |
| 20260507010042 | 62 | 0 | 0.0 | 0.0 | 0.00 | 0.00 | 0.00 | 59 | 1012.0 |
| 20260507004536 | 63 | 0 | 0.0 | 0.0 | 0.00 | 0.00 | 0.00 | 60 | 1011.9 |
| 20260507003032 | 63 | 0 | 0.0 | 0.0 | 0.00 | 0.00 | 0.00 | 60 | 1012.2 |
| 20260507001538 | 63 | 0 | 0.0 | 0.0 | 0.00 | 0.00 | 0.00 | 60 | 1012.3 |
| 20260507000038 | 63 | 0 | 0.0 | 0.0 | 0.00 | 0.00 | 0.00 | 60 | 1012.4 |
| 20260506234536 | 63 | 0 | 0.0 | 0.0 | 0.00 | 0.00 | 0.00 | 60 | 1012.4 |
| 20260506233036 | 63 | 0 | 0.0 | 0.0 | 0.00 | 0.00 | 0.00 | 60 | 1012.5 |
| 20260506231537 | 63 | 0 | 0.0 | 0.0 | 0.00 | 0.00 | 0.00 | 60 | 1012.6 |
| 20260506230039 | 63 | 0 | 0.0 | 0.0 | 0.00 | 0.00 | 0.00 | 61 | 1012.7 |
| 20260506224539 | 63 | 0 | 0.0 | 0.0 | 0.00 | 0.00 | 0.00 | 61 | 1012.7 |
| 20260506223033 | 63 | 0 | 0.0 | 0.0 | 0.00 | 0.00 | 0.00 | 61 | 1012.6 |
| 20260506221536 | 63 | 0 | 0.0 | 0.0 | 0.00 | 0.00 | 0.00 | 60 | 1012.7 |
| 20260506220040 | 64 | 0 | 0.0 | 0.0 | 0.00 | 0.00 | 0.00 | 60 | 1012.7 |
| 20260506214542 | 64 | 0 | 0.0 | 0.0 | 0.00 | 0.00 | 0.00 | 60 | 1012.9 |
| 20260506213037 | 64 | 0 | 0.0 | 3.5 | 0.00 | 0.00 | 0.00 | 60 | 1012.9 |
| 20260506211537 | 64 | 98 | 0.0 | 2.6 | 0.00 | 0.00 | 0.00 | 60 | 1013.0 |
| 20260506210039 | 64 | 0 | 0.0 | 2.6 | 0.00 | 0.00 | 0.00 | 60 | 1013.0 |
| 20260506204550 | 64 | 0 | 0.0 | 3.5 | 0.00 | 0.00 | 0.00 | 61 | 1012.9 |
| 20260506203039 | 64 | 106 | 0.0 | 3.5 | 0.00 | 0.00 | 0.00 | 61 | 1012.9 |
| 20260506201540 | 64 | 88 | 1.7 | 5.2 | 0.00 | 0.00 | 0.00 | 61 | 1012.5 |
| 20260506200037 | 64 | 94 | 0.9 | 5.2 | 0.00 | 0.00 | 0.00 | 60 | 1012.3 |
| 20260506194542 | 65 | 82 | 1.7 | 5.2 | 0.00 | 0.00 | 0.00 | 60 | 1012.1 |
| 20260506193035 | 65 | 88 | 1.7 | 6.1 | 0.00 | 0.00 | 0.00 | 59 | 1011.8 |
| 20260506191535 | 65 | 92 | 2.6 | 7.0 | 0.00 | 0.00 | 0.00 | 59 | 1011.7 |
| 20260506190054 | 66 | 46 | 2.6 | 10.4 | 0.00 | 0.00 | 0.00 | 58 | 1011.7 |
| 20260506184537 | 66 | 65 | 3.5 | 9.6 | 0.00 | 0.00 | 0.00 | 58 | 1011.5 |
| 20260506183040 | 66 | 148 | 6.1 | 11.3 | 0.00 | 0.00 | 0.00 | 56 | 1011.4 |
| 20260506181542 | 67 | 112 | 5.2 | 11.3 | 0.00 | 0.00 | 0.00 | 56 | 1011.5 |
| 20260506180039 | 67 | 111 | 6.1 | 11.3 | 0.00 | 0.00 | 0.00 | 54 | 1011.4 |
| 20260506174537 | 67 | 105 | 7.0 | 14.8 | 0.00 | 0.00 | 0.00 | 54 | 1011.3 |
| 20260506173037 | 68 | 119 | 6.1 | 13.9 | 0.00 | 0.00 | 0.00 | 53 | 1011.3 |
| 20260506171541 | 68 | 91 | 6.1 | 12.2 | 0.00 | 0.00 | 0.00 | 52 | 1011.3 |
| 20260506170038 | 68 | 67 | 4.3 | 12.2 | 0.00 | 0.00 | 0.00 | 53 | 1011.3 |
| 20260506164546 | 69 | 100 | 6.1 | 14.8 | 0.00 | 0.00 | 0.00 | 51 | 1011.2 |
| 20260506163040 | 69 | 85 | 7.8 | 16.5 | 0.00 | 0.00 | 0.00 | 49 | 1010.9 |
| 20260506161544 | 70 | 77 | 8.7 | 13.0 | 0.00 | 0.00 | 0.00 | 48 | 1010.9 |
| 20260506160043 | 70 | 161 | 7.0 | 13.9 | 0.00 | 0.00 | 0.00 | 47 | 1010.9 |
| 20260506154537 | 70 | 97 | 7.0 | 13.9 | 0.00 | 0.00 | 0.00 | 47 | 1010.8 |
| 20260506153038 | 70 | 79 | 8.7 | 13.9 | 0.00 | 0.00 | 0.00 | 48 | 1011.0 |
| 20260506151553 | 70 | 131 | 7.8 | 16.5 | 0.00 | 0.00 | 0.00 | 47 | 1011.1 |
| 20260506150036 | 70 | 92 | 7.8 | 14.8 | 0.00 | 0.00 | 0.00 | 48 | 1011.1 |
| 20260506144532 | 70 | 132 | 8.7 | 15.6 | 0.00 | 0.00 | 0.00 | 49 | 1011.0 |
| 20260506143046 | 71 | 158 | 7.0 | 17.4 | 0.00 | 0.00 | 0.00 | 49 | 1011.2 |